QPF
0.01 0.03 0.05 0.06 0.05 0.02 0.01 0.00 0.01 0.01 0.04 0.07 0.09 0.04 0.01 0.01 0.00 0.00 0.00 0.00 0.00 0.00 0.01 0.01 0.01 0.00 0.00 0.00 0.01 0.01 0.02 0.01 0.01 0.01 0.02 0.02 0.02 0.02 0.01 0.01 0.01 0.00 0.00 0.00
0.02 0.02 0.02 0.03 0.03 0.03 0.01 0.00 0.00 0.01 0.03 0.06 0.07 0.03 0.02 0.02 0.02 0.01 0.00 0.00 0.00 0.00 0.01 0.01 0.01 0.01 0.01 0.01 0.00 0.01 0.01 0.01 0.01 0.01 0.03 0.02 0.02 0.02 0.03 0.02 0.02 0.01 0.00 0.00
0.03 0.02 0.02 0.03 0.02 0.02 0.01 0.00 0.01 0.02 0.02 0.01 0.00 0.01 0.02 0.04 0.04 0.02 0.00 0.00 0.00 0.00 0.00 0.01 0.02 0.02 0.01 0.01 0.01 0.00 0.00 0.00 0.01 0.02 0.03 0.04 0.04 0.05 0.05 0.04 0.04 0.03 0.02 0.01
0.04 0.05 0.05 0.02 0.02 0.02 0.01 0.01 0.02 0.02 0.01 0.00 0.00 0.01 0.01 0.01 0.01 0.00 0.00 0.00 0.00 0.00 0.00 0.01 0.01 0.02 0.02 0.01 0.01 0.01 0.01 0.01 0.01 0.02 0.03 0.05 0.06 0.06 0.06 0.06 0.06 0.05 0.04 0.03
0.05 0.06 0.06 0.05 0.03 0.02 0.01 0.01 0.01 0.00 0.01 0.00 0.00 0.01 0.02 0.01 0.01 0.00 0.00 0.00 0.01 0.01 0.01 0.02 0.02 0.03 0.04 0.05 0.06 0.06 0.03 0.03 0.03 0.03 0.05 0.06 0.07 0.08 0.08 0.08 0.08 0.07 0.07 0.06
0.06 0.07 0.07 0.08 0.07 0.03 0.05 0.07 0.02 0.01 0.01 0.01 0.01 0.04 0.05 0.03 0.03 0.01 0.01 0.01 0.01 0.01 0.02 0.03 0.03 0.03 0.04 0.06 0.11 0.17 0.15 0.09 0.07 0.07 0.08 0.09 0.09 0.10 0.10 0.12 0.13 0.12 0.10 0.08
0.07 0.09 0.08 0.07 0.07 0.03 0.08 0.11 0.03 0.01 0.01 0.01 0.05 0.07 0.04 0.01 0.01 0.01 0.00 0.01 0.01 0.01 0.01 0.02 0.03 0.04 0.06 0.08 0.10 0.14 0.18 0.18 0.18 0.16 0.12 0.10 0.10 0.11 0.11 0.11 0.11 0.09 0.07 0.05
0.07 0.11 0.14 0.05 0.04 0.08 0.10 0.05 0.03 0.02 0.01 0.02 0.03 0.03 0.01 0.01 0.00 0.00 0.00 0.00 0.01 0.01 0.01 0.02 0.04 0.06 0.09 0.12 0.13 0.14 0.19 0.25 0.28 0.26 0.18 0.11 0.10 0.09 0.09 0.10 0.10 0.07 0.06 0.06
0.12 0.15 0.13 0.05 0.05 0.04 0.03 0.04 0.04 0.02 0.01 0.01 0.01 0.01 0.01 0.01 0.01 0.00 0.00 0.01 0.01 0.02 0.02 0.02 0.03 0.05 0.10 0.11 0.12 0.12 0.14 0.20 0.24 0.23 0.17 0.10 0.08 0.07 0.07 0.06 0.07 0.06 0.06 0.07
0.17 0.16 0.10 0.05 0.03 0.02 0.01 0.01 0.01 0.00 0.01 0.01 0.01 0.02 0.02 0.01 0.01 0.01 0.01 0.01 0.01 0.01 0.02 0.02 0.02 0.03 0.05 0.08 0.09 0.09 0.09 0.10 0.11 0.14 0.14 0.12 0.09 0.07 0.08 0.08 0.07 0.07 0.06 0.05
0.17 0.21 0.17 0.09 0.04 0.03 0.01 0.01 0.00 0.00 0.01 0.01 0.02 0.02 0.02 0.01 0.01 0.01 0.01 0.01 0.01 0.01 0.01 0.02 0.02 0.02 0.04 0.06 0.08 0.10 0.11 0.11 0.12 0.12 0.13 0.12 0.11 0.07 0.06 0.05 0.04 0.04 0.03 0.03
0.15 0.12 0.11 0.08 0.04 0.02 0.02 0.02 0.01 0.01 0.02 0.02 0.01 0.01 0.01 0.01 0.01 0.01 0.01 0.01 0.01 0.01 0.01 0.01 0.02 0.02 0.03 0.05 0.06 0.07 0.08 0.09 0.11 0.12 0.12 0.13 0.10 0.07 0.05 0.03 0.02 0.02 0.01 0.01
0.04 0.04 0.04 0.04 0.02 0.02 0.02 0.03 0.03 0.03 0.02 0.01 0.01 0.01 0.01 0.01 0.01 0.01 0.01 0.01 0.01 0.02 0.02 0.02 0.02 0.03 0.03 0.03 0.03 0.04 0.05 0.06 0.07 0.07 0.08 0.09 0.10 0.07 0.06 0.04 0.03 0.01 0.01 0.01
0.02 0.03 0.04 0.02 0.02 0.02 0.02 0.05 0.05 0.03 0.02 0.01 0.01 0.01 0.01 0.00 0.00 0.00 0.00 0.00 0.01 0.01 0.02 0.02 0.02 0.03 0.03 0.03 0.03 0.03 0.03 0.04 0.05 0.06 0.07 0.07 0.07 0.06 0.06 0.06 0.04 0.02 0.02 0.01
0.01 0.02 0.03 0.02 0.01 0.02 0.02 0.03 0.04 0.03 0.02 0.02 0.01 0.01 0.01 0.00 0.00 0.00 0.00 0.00 0.00 0.00 0.00 0.00 0.01 0.01 0.02 0.02 0.02 0.01 0.01 0.02 0.02 0.02 0.03 0.03 0.04 0.04 0.04 0.04 0.03 0.02 0.02 0.02
0.02 0.03 0.03 0.03 0.02 0.02 0.03 0.03 0.03 0.02 0.01 0.01 0.01 0.01 0.01 0.01 0.00 0.00 0.01 0.00 0.00 0.00 0.00 0.00 0.01 0.01 0.01 0.01 0.01 0.01 0.01 0.01 0.01 0.01 0.01 0.01 0.01 0.01 0.01 0.01 0.01 0.01 0.02 0.02
0.03 0.04 0.04 0.04 0.04 0.03 0.03 0.02 0.02 0.02 0.01 0.02 0.02 0.02 0.01 0.01 0.01 0.01 0.01 0.01 0.01 0.01 0.00 0.00 0.01 0.01 0.00 0.00 0.00 0.00 0.01 0.02 0.01 0.01 0.01 0.01 0.00 0.00 0.00 0.01 0.01 0.02 0.02 0.02
0.04 0.04 0.04 0.03 0.03 0.03 0.02 0.01 0.01 0.01 0.00 0.00 0.00 0.00 0.01 0.01 0.01 0.01 0.01 0.01 0.01 0.01 0.00 0.00 0.00 0.00 0.00 0.00 0.00 0.00 0.01 0.01 0.00 0.00 0.00 0.00 0.00 0.00 0.01 0.01 0.01 0.01 0.02 0.01
0.04 0.04 0.03 0.02 0.01 0.01 0.01 0.01 0.01 0.01 0.00 0.00 0.01 0.01 0.01 0.01 0.02 0.01 0.01 0.00 0.00 0.00 0.00 0.00 0.00 0.00 0.00 0.00 0.00 0.00 0.00 0.01 0.00 0.00 0.00 0.00 0.00 0.00 0.01 0.01 0.01 0.01 0.01 0.01
0.03 0.02 0.01 0.01 0.01 0.00 0.00 0.00 0.00 0.00 0.00 0.01 0.01 0.01 0.01 0.01 0.01 0.01 0.01 0.01 0.00 0.00 0.00 0.00 0.00 0.00 0.00 0.00 0.00 0.00 0.00 0.00 0.00 0.00 0.00 0.00 0.00 0.00 0.00 0.00 0.00 0.00 0.01 0.01
0.03 0.03 0.01 0.01 0.01 0.00 0.00 0.00 0.00 0.00 0.00 0.00 0.00 0.00 0.00 0.01 0.01 0.01 0.01 0.01 0.01 0.00 0.00 0.00 0.00 0.00 0.00 0.00 0.00 0.00 0.00 0.00 0.00 0.00 0.00 0.00 0.00 0.00 0.00 0.00 0.00 0.00 0.00 0.01
0.01 0.01 0.01 0.02 0.02 0.02 0.01 0.01 0.01 0.00 0.00 0.00 0.01 0.01 0.01 0.01 0.01 0.01 0.01 0.00 0.01 0.00 0.00 0.00 0.00 0.00 0.00 0.00 0.00 0.00 0.00 0.00 0.00 0.00 0.00 0.00 0.00 0.00 0.00 0.01 0.01 0.01 0.01 0.01
0.01 0.01 0.00 0.00 0.01 0.01 0.01 0.01 0.01 0.01 0.01 0.01 0.01 0.01 0.01 0.01 0.00 0.00 0.00 0.00 0.00 0.00 0.00 0.00 0.00 0.00 0.00 0.00 0.00 0.00 0.00 0.00 0.00 0.00 0.00 0.00 0.00 0.01 0.01 0.02 0.02 0.02 0.02 0.01
0.01 0.01 0.01 0.00 0.00 0.00 0.00 0.00 0.01 0.01 0.01 0.01 0.01 0.01 0.01 0.01 0.00 0.00 0.00 0.00 0.00 0.00 0.00 0.00 0.00 0.00 0.00 0.00 0.00 0.00 0.00 0.00 0.00 0.00 0.00 0.01 0.01 0.01 0.01 0.02 0.01 0.01 0.01 0.01
0.02 0.01 0.01 0.00 0.00 0.00 0.00 0.00 0.00 0.00 0.00 0.00 0.00 0.01 0.00 0.00 0.00 0.01 0.01 0.01 0.01 0.00 0.00 0.00 0.01 0.01 0.00 0.00 0.00 0.01 0.01 0.01 0.01 0.01 0.02 0.02 0.02 0.02 0.02 0.02 0.03 0.03 0.04 0.04
0.00 0.00 0.00 0.00 0.00 0.00 0.00 0.00 0.00 0.00 0.00 0.01 0.01 0.00 0.00 0.00 0.01 0.02 0.02 0.02 0.01 0.01 0.01 0.01 0.02 0.02 0.02 0.02 0.02 0.02 0.02 0.02 0.03 0.03 0.03 0.04 0.03 0.03 0.04 0.04 0.04 0.04 0.04 0.04
0.00 0.00 0.00 0.01 0.01 0.00 0.00 0.01 0.01 0.01 0.01 0.01 0.01 0.01 0.01 0.01 0.01 0.02 0.02 0.02 0.02 0.03 0.03 0.03 0.03 0.02 0.02 0.03 0.03 0.02 0.03 0.03 0.03 0.04 0.04 0.04 0.04 0.04 0.04 0.04 0.03 0.03 0.03 0.04
MSLP
1005.59 1006.34 1007.01 1007.51 1007.79 1007.81 1007.58 1007.12 1006.48 1005.75 1005.01 1004.34 1003.82 1003.49 1003.38 1003.47 1003.72 1004.11 1004.57 1005.06 1005.55 1006.01 1006.45 1006.88 1007.31 1007.77 1008.25 1008.78 1009.32 1009.88 1010.43 1010.95 1011.45 1011.91 1012.34 1012.76 1013.18 1013.62 1014.06 1014.52 1014.96 1015.38 1015.76 1016.06
1005.86 1006.56 1007.10 1007.42 1007.48 1007.27 1006.83 1006.21 1005.50 1004.78 1004.13 1003.62 1003.30 1003.19 1003.26 1003.48 1003.81 1004.18 1004.57 1004.92 1005.23 1005.51 1005.78 1006.06 1006.38 1006.78 1007.24 1007.78 1008.37 1008.98 1009.59 1010.18 1010.72 1011.23 1011.70 1012.15 1012.59 1013.05 1013.51 1013.97 1014.43 1014.86 1015.24 1015.56
1005.97 1006.57 1006.97 1007.10 1006.96 1006.56 1005.96 1005.24 1004.50 1003.83 1003.31 1002.98 1002.89 1002.99 1003.26 1003.62 1004.01 1004.39 1004.69 1004.91 1005.04 1005.14 1005.22 1005.35 1005.56 1005.88 1006.32 1006.86 1007.49 1008.16 1008.83 1009.47 1010.08 1010.62 1011.12 1011.59 1012.04 1012.49 1012.95 1013.41 1013.86 1014.28 1014.66 1014.99
1005.92 1006.38 1006.60 1006.56 1006.24 1005.68 1004.97 1004.21 1003.49 1002.91 1002.55 1002.43 1002.55 1002.88 1003.34 1003.84 1004.32 1004.70 1004.95 1005.05 1005.05 1004.98 1004.91 1004.89 1004.99 1005.24 1005.65 1006.20 1006.84 1007.55 1008.27 1008.96 1009.60 1010.17 1010.68 1011.14 1011.58 1012.00 1012.43 1012.85 1013.28 1013.69 1014.06 1014.38
1005.75 1006.03 1006.07 1005.85 1005.38 1004.71 1003.93 1003.16 1002.51 1002.05 1001.85 1001.94 1002.28 1002.82 1003.47 1004.11 1004.68 1005.09 1005.33 1005.37 1005.27 1005.09 1004.90 1004.79 1004.81 1005.00 1005.37 1005.90 1006.55 1007.28 1008.01 1008.72 1009.36 1009.92 1010.41 1010.83 1011.22 1011.60 1011.97 1012.35 1012.74 1013.12 1013.48 1013.80
1005.52 1005.58 1005.43 1005.04 1004.45 1003.70 1002.91 1002.17 1001.60 1001.28 1001.25 1001.53 1002.07 1002.80 1003.61 1004.40 1005.07 1005.54 1005.80 1005.84 1005.70 1005.47 1005.23 1005.07 1005.04 1005.19 1005.53 1006.04 1006.67 1007.38 1008.09 1008.76 1009.36 1009.88 1010.31 1010.67 1010.99 1011.29 1011.60 1011.92 1012.26 1012.61 1012.96 1013.28
1005.28 1005.11 1004.77 1004.24 1003.55 1002.76 1001.98 1001.30 1000.84 1000.65 1000.78 1001.22 1001.94 1002.83 1003.78 1004.69 1005.46 1006.02 1006.33 1006.41 1006.30 1006.09 1005.86 1005.69 1005.65 1005.78 1006.09 1006.57 1007.16 1007.80 1008.46 1009.06 1009.59 1010.01 1010.35 1010.62 1010.85 1011.07 1011.30 1011.57 1011.86 1012.18 1012.52 1012.85
1005.05 1004.68 1004.17 1003.53 1002.78 1001.99 1001.26 1000.66 1000.31 1000.25 1000.51 1001.09 1001.92 1002.92 1003.98 1004.98 1005.84 1006.48 1006.88 1007.04 1007.01 1006.86 1006.69 1006.56 1006.54 1006.66 1006.95 1007.38 1007.90 1008.47 1009.02 1009.52 1009.93 1010.25 1010.48 1010.64 1010.78 1010.91 1011.07 1011.28 1011.54 1011.84 1012.17 1012.52
1004.85 1004.32 1003.69 1002.98 1002.22 1001.48 1000.83 1000.35 1000.11 1000.16 1000.53 1001.18 1002.09 1003.14 1004.25 1005.30 1006.22 1006.93 1007.41 1007.67 1007.74 1007.69 1007.60 1007.54 1007.56 1007.69 1007.96 1008.33 1008.76 1009.22 1009.66 1010.03 1010.32 1010.51 1010.62 1010.68 1010.72 1010.78 1010.88 1011.05 1011.28 1011.58 1011.92 1012.28
1004.68 1004.04 1003.35 1002.65 1001.95 1001.30 1000.77 1000.41 1000.30 1000.45 1000.88 1001.58 1002.50 1003.55 1004.65 1005.70 1006.63 1007.38 1007.92 1008.26 1008.43 1008.49 1008.50 1008.51 1008.57 1008.72 1008.95 1009.26 1009.60 1009.95 1010.25 1010.49 1010.64 1010.72 1010.72 1010.69 1010.66 1010.66 1010.73 1010.87 1011.09 1011.39 1011.74 1012.11
1004.53 1003.85 1003.20 1002.56 1001.98 1001.48 1001.10 1000.90 1000.91 1001.15 1001.62 1002.32 1003.20 1004.19 1005.22 1006.21 1007.10 1007.84 1008.41 1008.81 1009.06 1009.21 1009.29 1009.37 1009.47 1009.62 1009.82 1010.05 1010.30 1010.53 1010.72 1010.83 1010.87 1010.84 1010.77 1010.67 1010.59 1010.56 1010.60 1010.73 1010.95 1011.25 1011.60 1011.98
1004.40 1003.78 1003.22 1002.73 1002.32 1002.01 1001.83 1001.79 1001.92 1002.24 1002.73 1003.40 1004.20 1005.09 1006.00 1006.88 1007.68 1008.37 1008.92 1009.33 1009.62 1009.82 1009.96 1010.08 1010.20 1010.33 1010.49 1010.66 1010.82 1010.95 1011.02 1011.03 1010.98 1010.88 1010.75 1010.61 1010.51 1010.47 1010.50 1010.63 1010.85 1011.14 1011.48 1011.85
1004.32 1003.82 1003.42 1003.13 1002.94 1002.85 1002.87 1003.01 1003.26 1003.64 1004.14 1004.75 1005.45 1006.20 1006.97 1007.70 1008.38 1008.97 1009.46 1009.84 1010.13 1010.34 1010.50 1010.63 1010.75 1010.86 1010.97 1011.08 1011.15 1011.19 1011.18 1011.12 1011.01 1010.86 1010.70 1010.55 1010.44 1010.39 1010.43 1010.55 1010.76 1011.03 1011.35 1011.68
1004.34 1004.01 1003.81 1003.73 1003.78 1003.91 1004.14 1004.44 1004.81 1005.24 1005.73 1006.28 1006.86 1007.47 1008.07 1008.64 1009.17 1009.65 1010.04 1010.36 1010.61 1010.81 1010.96 1011.07 1011.16 1011.24 1011.29 1011.33 1011.34 1011.31 1011.23 1011.12 1010.97 1010.80 1010.64 1010.49 1010.38 1010.34 1010.36 1010.47 1010.65 1010.89 1011.16 1011.43
1004.53 1004.39 1004.39 1004.53 1004.78 1005.12 1005.52 1005.96 1006.42 1006.89 1007.37 1007.84 1008.31 1008.77 1009.21 1009.63 1010.01 1010.35 1010.64 1010.88 1011.07 1011.22 1011.33 1011.41 1011.46 1011.49 1011.49 1011.47 1011.42 1011.33 1011.22 1011.07 1010.91 1010.73 1010.56 1010.42 1010.32 1010.27 1010.28 1010.35 1010.49 1010.66 1010.87 1011.08
1004.96 1004.98 1005.15 1005.47 1005.89 1006.39 1006.91 1007.45 1007.97 1008.45 1008.89 1009.29 1009.66 1009.98 1010.28 1010.55 1010.80 1011.02 1011.20 1011.36 1011.48 1011.58 1011.64 1011.67 1011.67 1011.65 1011.59 1011.52 1011.41 1011.29 1011.14 1010.97 1010.80 1010.63 1010.46 1010.32 1010.21 1010.15 1010.13 1010.16 1010.23 1010.34 1010.46 1010.59
1005.66 1005.80 1006.09 1006.52 1007.04 1007.62 1008.22 1008.79 1009.32 1009.78 1010.18 1010.51 1010.77 1010.98 1011.16 1011.31 1011.45 1011.56 1011.66 1011.74 1011.80 1011.84 1011.85 1011.83 1011.78 1011.71 1011.60 1011.48 1011.34 1011.17 1011.00 1010.82 1010.64 1010.47 1010.30 1010.15 1010.03 1009.93 1009.87 1009.84 1009.84 1009.87 1009.92 1009.98
1006.63 1006.83 1007.17 1007.63 1008.18 1008.77 1009.36 1009.92 1010.41 1010.82 1011.15 1011.39 1011.57 1011.68 1011.77 1011.83 1011.87 1011.91 1011.94 1011.97 1011.97 1011.97 1011.93 1011.86 1011.77 1011.65 1011.51 1011.34 1011.16 1010.98 1010.78 1010.59 1010.40 1010.22 1010.04 1009.88 1009.73 1009.60 1009.49 1009.40 1009.33 1009.28 1009.26 1009.26
1007.81 1008.00 1008.32 1008.75 1009.24 1009.77 1010.29 1010.77 1011.18 1011.51 1011.75 1011.91 1012.00 1012.04 1012.05 1012.05 1012.03 1012.02 1012.01 1011.99 1011.97 1011.92 1011.85 1011.76 1011.63 1011.47 1011.30 1011.10 1010.90 1010.69 1010.48 1010.27 1010.07 1009.88 1009.69 1009.51 1009.33 1009.16 1009.00 1008.85 1008.72 1008.61 1008.54 1008.49
1009.09 1009.22 1009.46 1009.79 1010.19 1010.60 1011.01 1011.37 1011.66 1011.89 1012.03 1012.10 1012.11 1012.09 1012.05 1012.00 1011.95 1011.91 1011.87 1011.84 1011.79 1011.72 1011.64 1011.52 1011.37 1011.20 1010.99 1010.78 1010.55 1010.33 1010.10 1009.88 1009.67 1009.46 1009.26 1009.05 1008.85 1008.65 1008.45 1008.27 1008.09 1007.95 1007.83 1007.76
1010.32 1010.36 1010.50 1010.71 1010.97 1011.24 1011.51 1011.73 1011.90 1012.01 1012.05 1012.04 1011.99 1011.91 1011.83 1011.76 1011.69 1011.64 1011.59 1011.55 1011.50 1011.43 1011.33 1011.21 1011.05 1010.86 1010.65 1010.42 1010.18 1009.94 1009.71 1009.48 1009.26 1009.04 1008.82 1008.60 1008.38 1008.16 1007.95 1007.73 1007.54 1007.38 1007.24 1007.16
1011.37 1011.33 1011.36 1011.45 1011.57 1011.70 1011.82 1011.91 1011.96 1011.96 1011.92 1011.84 1011.74 1011.63 1011.52 1011.43 1011.36 1011.31 1011.27 1011.23 1011.18 1011.12 1011.03 1010.90 1010.74 1010.55 1010.34 1010.10 1009.86 1009.61 1009.37 1009.14 1008.91 1008.68 1008.46 1008.23 1008.01 1007.78 1007.56 1007.35 1007.15 1006.98 1006.85 1006.77
1012.15 1012.04 1011.98 1011.97 1011.98 1011.99 1012.00 1011.98 1011.94 1011.85 1011.74 1011.62 1011.48 1011.35 1011.24 1011.15 1011.09 1011.04 1011.02 1010.99 1010.96 1010.90 1010.82 1010.70 1010.55 1010.36 1010.15 1009.91 1009.67 1009.42 1009.17 1008.93 1008.70 1008.47 1008.24 1008.03 1007.81 1007.59 1007.38 1007.17 1006.99 1006.84 1006.72 1006.64
1012.64 1012.49 1012.38 1012.30 1012.23 1012.17 1012.10 1012.01 1011.90 1011.77 1011.63 1011.48 1011.34 1011.21 1011.11 1011.03 1010.98 1010.96 1010.95 1010.94 1010.91 1010.87 1010.80 1010.69 1010.54 1010.36 1010.15 1009.91 1009.66 1009.41 1009.16 1008.92 1008.68 1008.46 1008.23 1008.02 1007.81 1007.61 1007.42 1007.24 1007.08 1006.94 1006.83 1006.75
1012.86 1012.71 1012.59 1012.48 1012.38 1012.28 1012.18 1012.06 1011.93 1011.79 1011.64 1011.50 1011.38 1011.28 1011.20 1011.15 1011.13 1011.13 1011.13 1011.14 1011.13 1011.09 1011.03 1010.92 1010.78 1010.59 1010.38 1010.14 1009.89 1009.63 1009.38 1009.12 1008.88 1008.65 1008.43 1008.22 1008.03 1007.84 1007.67 1007.51 1007.37 1007.25 1007.15 1007.08
1012.92 1012.80 1012.69 1012.60 1012.50 1012.41 1012.30 1012.20 1012.08 1011.96 1011.85 1011.74 1011.66 1011.60 1011.57 1011.55 1011.56 1011.59 1011.61 1011.63 1011.62 1011.59 1011.52 1011.41 1011.26 1011.07 1010.84 1010.60 1010.33 1010.06 1009.78 1009.52 1009.26 1009.02 1008.80 1008.59 1008.40 1008.22 1008.06 1007.92 1007.79 1007.68 1007.59 1007.52
1012.94 1012.87 1012.80 1012.73 1012.67 1012.60 1012.53 1012.46 1012.39 1012.32 1012.26 1012.22 1012.19 1012.18 1012.20 1012.23 1012.28 1012.32 1012.36 1012.38 1012.38 1012.34 1012.26 1012.13 1011.96 1011.75 1011.50 1011.23 1010.94 1010.65 1010.35 1010.06 1009.78 1009.52 1009.28 1009.06 1008.86 1008.68 1008.53 1008.39 1008.27 1008.16 1008.06 1007.98
Thickness
5783 5780 5772 5762 5761 5771 5772 5775 5773 5773 5770 5773 5783 5792 5797 5798 5798 5795 5793 5791 5789 5786 5782 5780 5777 5774 5772 5768 5766 5763 5757 5753 5750 5748 5745 5742 5739 5736 5733 5729 5726 5723 5720 5716
5769 5778 5772 5764 5768 5770 5772 5781 5786 5784 5776 5791 5796 5795 5794 5794 5792 5788 5787 5788 5788 5786 5783 5779 5777 5774 5772 5770 5767 5764 5759 5755 5752 5747 5743 5740 5737 5733 5730 5726 5723 5719 5716 5713
5754 5769 5765 5756 5770 5775 5778 5787 5789 5778 5780 5791 5789 5786 5784 5785 5782 5782 5784 5785 5785 5783 5781 5780 5778 5775 5771 5769 5767 5763 5757 5754 5750 5746 5741 5737 5734 5730 5726 5721 5718 5714 5711 5708
5747 5746 5728 5765 5790 5788 5783 5786 5792 5787 5790 5791 5786 5785 5785 5784 5780 5779 5781 5780 5780 5781 5780 5780 5779 5775 5772 5769 5764 5759 5754 5750 5747 5743 5738 5734 5729 5725 5721 5717 5713 5709 5706 5703
5735 5729 5738 5760 5774 5777 5771 5768 5784 5783 5784 5785 5786 5781 5773 5777 5777 5775 5775 5776 5776 5777 5777 5776 5775 5773 5770 5765 5759 5753 5749 5745 5742 5738 5732 5728 5723 5719 5715 5711 5707 5703 5700 5697
5734 5725 5719 5741 5765 5776 5765 5748 5774 5778 5775 5775 5773 5755 5751 5767 5769 5768 5769 5770 5769 5770 5769 5767 5767 5767 5761 5756 5751 5745 5741 5738 5735 5731 5725 5720 5715 5711 5708 5704 5699 5696 5693 5690
5728 5723 5728 5743 5760 5764 5732 5737 5765 5768 5767 5765 5759 5753 5755 5761 5760 5759 5760 5760 5760 5758 5755 5754 5754 5752 5747 5742 5738 5736 5733 5729 5724 5721 5716 5711 5707 5704 5700 5695 5691 5688 5685 5683
5724 5713 5712 5743 5751 5739 5739 5756 5760 5759 5759 5755 5753 5752 5750 5749 5748 5748 5747 5747 5747 5744 5741 5741 5740 5737 5732 5727 5726 5724 5721 5716 5711 5707 5703 5700 5696 5692 5688 5684 5680 5678 5676 5674
5709 5710 5725 5738 5739 5744 5752 5749 5749 5749 5750 5749 5745 5741 5739 5736 5734 5734 5734 5733 5733 5730 5727 5725 5723 5721 5715 5712 5712 5709 5706 5701 5698 5694 5690 5687 5685 5681 5677 5673 5670 5668 5666 5663
5702 5705 5715 5724 5734 5739 5745 5742 5744 5745 5744 5741 5734 5729 5725 5722 5719 5718 5718 5717 5716 5714 5710 5707 5706 5705 5702 5699 5698 5695 5690 5686 5683 5680 5677 5675 5673 5670 5666 5663 5660 5658 5656 5654
5691 5697 5705 5711 5720 5727 5733 5736 5736 5735 5734 5729 5723 5716 5712 5709 5706 5705 5703 5701 5699 5696 5693 5691 5690 5688 5687 5685 5683 5680 5676 5673 5670 5667 5665 5663 5661 5659 5656 5652 5651 5648 5646 5644
5683 5694 5697 5699 5711 5719 5719 5720 5720 5719 5714 5713 5709 5703 5700 5696 5694 5692 5690 5688 5685 5682 5679 5677 5675 5673 5671 5671 5669 5666 5663 5661 5659 5657 5654 5653 5650 5648 5646 5644 5641 5638 5635 5632
5694 5699 5699 5701 5705 5709 5707 5707 5706 5702 5699 5696 5694 5691 5687 5683 5681 5678 5676 5674 5671 5668 5665 5663 5662 5660 5659 5658 5656 5653 5650 5648 5648 5646 5645 5643 5640 5639 5636 5633 5630 5627 5624 5620
5694 5693 5689 5691 5692 5695 5695 5694 5692 5689 5687 5683 5679 5677 5673 5670 5667 5665 5663 5662 5660 5658 5655 5652 5649 5648 5647 5646 5644 5641 5639 5637 5635 5635 5634 5633 5631 5629 5628 5625 5621 5620 5615 5610
5684 5685 5682 5683 5683 5682 5682 5679 5675 5671 5669 5666 5665 5662 5659 5656 5653 5651 5651 5650 5648 5645 5643 5640 5637 5635 5636 5634 5632 5630 5628 5627 5625 5623 5621 5621 5620 5619 5617 5614 5611 5608 5605 5601
5673 5674 5672 5669 5667 5666 5665 5662 5658 5655 5654 5652 5650 5648 5646 5644 5641 5639 5638 5636 5633 5630 5629 5627 5625 5624 5623 5621 5619 5618 5617 5615 5613 5611 5611 5610 5608 5606 5604 5600 5597 5594 5590 5586
5659 5655 5655 5653 5652 5651 5651 5649 5647 5645 5643 5641 5639 5637 5635 5632 5629 5626 5625 5624 5622 5620 5618 5616 5613 5612 5611 5609 5607 5607 5606 5605 5601 5600 5600 5598 5595 5592 5589 5586 5582 5579 5575 5571
5652 5650 5648 5646 5643 5640 5639 5638 5636 5634 5632 5632 5630 5627 5624 5621 5618 5615 5614 5613 5611 5609 5607 5606 5603 5601 5600 5598 5596 5594 5593 5593 5592 5590 5589 5586 5583 5579 5576 5572 5568 5564 5561 5557
5640 5638 5636 5635 5633 5631 5628 5626 5625 5624 5623 5622 5619 5616 5614 5612 5609 5607 5604 5602 5599 5596 5595 5595 5591 5590 5589 5586 5583 5582 5582 5581 5580 5577 5575 5571 5568 5565 5561 5557 5553 5549 5545 5542
5626 5625 5624 5622 5622 5620 5618 5617 5616 5614 5613 5611 5608 5605 5603 5601 5599 5597 5594 5591 5589 5587 5585 5583 5581 5579 5576 5573 5569 5570 5570 5568 5566 5564 5561 5557 5553 5549 5546 5542 5538 5534 5531 5528
5615 5614 5614 5613 5612 5611 5610 5609 5607 5605 5603 5601 5598 5595 5592 5590 5589 5586 5583 5580 5579 5576 5574 5571 5569 5565 5563 5557 5556 5557 5556 5555 5552 5549 5547 5544 5540 5536 5532 5529 5525 5521 5518 5515
5604 5603 5603 5602 5601 5600 5600 5600 5598 5596 5593 5591 5588 5585 5581 5579 5578 5576 5573 5569 5567 5561 5560 5559 5556 5549 5545 5542 5544 5544 5542 5540 5538 5536 5533 5529 5525 5521 5518 5515 5512 5510 5507 5504
5592 5592 5592 5591 5591 5590 5590 5589 5587 5585 5582 5579 5576 5573 5570 5567 5565 5562 5559 5557 5555 5548 5546 5544 5538 5534 5530 5531 5531 5530 5529 5526 5524 5521 5518 5514 5511 5508 5505 5503 5501 5499 5497 5494
5582 5581 5581 5581 5581 5580 5578 5577 5576 5573 5571 5568 5566 5563 5559 5556 5554 5552 5548 5543 5539 5534 5534 5529 5524 5521 5518 5519 5519 5517 5515 5512 5509 5507 5504 5501 5499 5497 5495 5493 5491 5490 5488 5485
5573 5571 5572 5571 5570 5570 5568 5567 5565 5562 5560 5557 5554 5551 5548 5544 5540 5538 5534 5530 5526 5522 5521 5517 5512 5509 5508 5507 5505 5502 5500 5497 5494 5491 5490 5489 5487 5486 5483 5482 5481 5479 5478 5477
5565 5564 5563 5561 5560 5558 5558 5555 5552 5549 5547 5543 5540 5537 5534 5531 5528 5525 5522 5519 5515 5510 5508 5505 5502 5498 5496 5494 5491 5489 5486 5485 5484 5482 5479 5478 5477 5476 5475 5473 5472 5471 5470 5469
5558 5557 5555 5553 5551 5548 5545 5541 5537 5534 5531 5528 5525 5523 5520 5517 5515 5511 5508 5505 5501 5498 5494 5491 5488 5486 5484 5481 5479 5476 5475 5473 5471 5470 5468 5467 5466 5465 5464 5463 5463 5463 5462 5462